Location: *
(51.8167°N, 12.5000°E)
Time: 11:19:35
(UTC+00:00)

Cosmos 1833 Rocket - Pass Details

Date: 16 September 2019
Orbit: 834 x 838 km, 71.0° (Epoch: 22 October)

Event Time Altitude Azimuth Distance (km) Brightness Sun altitude
Rises 23:42:16 0° 330° (NNW) 3,395 6.4 -35.2°
Reaches altitude 10° 23:44:46 10° 334° (NNW) 2,457 5.6 -35.1°
Enters shadow 23:48:24 39° 355° (N) 1,246 3.9 -34.9°
